Flag for Canada Weather past 2 weeks in Thompson, Manitoba, Canada

Now
25 °F

Partly cloudy.


Feels Like: 25 °F
Forecast: 10 / 25 °F
Wind: 2 mph from North

Location: Thompson

Current Time: Apr 1, 2015 at 5:01:24 AM

Latest Report: Apr 1, 2015 at 4:00 AM


Visibility: 15 mi

Pressure: 29.80 "Hg

Humidity: 86%

Dew point: 21 °F

Location of ThompsonLocation

Historic Weather in Thompson — Graph

°F

Thompson temperature yesterday

Maximum temperature yesterday: 32 °F (at 5:00 PM)
Minimum temperature yesterday: 7 °F (at 7:00 AM)
Average temperature yesterday: 21 °F

Past Weeks' High & Low Weather Summary

 TemperatureHumidityPressure
High39 °F (Mar 27, 4:00 PM)100% (Mar 28, 8:00 PM)30.52 "Hg (Mar 28, 8:00 PM)
Low-15 °F (Mar 20, 4:00 AM)19% (Mar 26, 3:00 PM)29.51 "Hg (Mar 28, 7:00 PM)
Average14 °F63%30.11 "Hg
* Reported Mar 17 4:00 AM — Apr 1 4:00 AM, Thompson, Weather by CustomWeather, © 2015

Note: Actual official high and low records may vary slightly from our data, if they occured in-between our weather recording intervals... More about our weather records

Advertising

Thompson weather history for previous 24 hours

 ConditionsComfort  
Time TempWeatherWind HumidityBarometerVisibility
4:00 AM
Wed, Apr 1
25 °FPartly cloudy.2 mph86%29.80 "Hg15 mi
3:00 AM27 °FPartly cloudy.3 mph86%29.80 "Hg15 mi
2:00 AM25 °FMostly cloudy.2 mph86%29.81 "Hg15 mi
1:00 AM27 °FMostly cloudy.No wind86%29.82 "Hg15 mi
12:00 AM23 °FMostly cloudy.2 mph86%29.83 "Hg15 mi
11:00 PM
Tue, Mar 31
27 °FOvercast.3 mph86%29.83 "Hg15 mi
10:00 PM25 °FPassing clouds.2 mph86%29.84 "Hg15 mi
9:00 PM27 °FPartly sunny.2 mph86%29.84 "Hg15 mi
8:00 PM28 °FPartly sunny.5 mph80%29.86 "Hg15 mi
7:00 PM30 °FPartly sunny.7 mph75%29.87 "Hg15 mi
6:00 PM32 °FBroken clouds.9 mph69%29.90 "Hg15 mi
5:00 PM32 °FPassing clouds.7 mph69%29.90 "Hg15 mi
4:00 PM30 °FPartly sunny.14 mph69%29.91 "Hg15 mi
3:00 PM30 °FPartly sunny.7 mph69%29.92 "Hg15 mi
2:00 PM27 °FPartly sunny.8 mph74%29.93 "Hg15 mi
1:00 PM25 °FPartly sunny.6 mph74%29.96 "Hg15 mi
12:00 PM21 °FPartly sunny.3 mph74%29.97 "Hg15 mi
11:00 AM18 °FOvercast.7 mph79%29.99 "Hg15 mi
10:00 AM16 °FPartly sunny.3 mph73%30.01 "Hg15 mi
9:00 AM12 °FPartly sunny.No wind73%30.01 "Hg15 mi
8:00 AM9 °FPassing clouds.2 mph78%30.01 "Hg15 mi
7:00 AM7 °FPassing clouds.5 mph92%30.01 "Hg15 mi
6:00 AM9 °FPassing clouds.2 mph78%30.00 "Hg15 mi
5:45 AM10 °FPassing clouds.2 mph85%30.00 "Hg15 mi
5:00 AM14 °FLight snow. Passing clouds.No wind79%29.99 "Hg15 mi
Weather by CustomWeather, © 2015

See weather overviewHow to use our weather pages